ALV302 SVBC-TNCC

Flight info

Callsign ALV302
Flight time 0h 52m
Altitude 32000
Route ARVEX1 ISULA G443 CBC/N0456F320 DCT MIDUR DCT BONAX BONAX1B
Aircraft MD82/M-SDFGIRWY/S

Departure

Time 2026-05-03 20:18
Airport General José Antonio Anzoategui International Airport (SVBC)

Arrival

Time 2026-05-03 21:11
Airport Hato International Airport (TNCC)
Time Latitude Longitude Altitude Speed Heading
2026-05-03 20:15 10.10078 -64.68385 40 ft 14 kts 232°
2026-05-03 20:15 10.10000 -64.68481 40 ft 26 kts 230°
2026-05-03 20:15 10.09860 -64.68661 40 ft 35 kts 236°
2026-05-03 20:15 10.09910 -64.68837 40 ft 28 kts 329°
2026-05-03 20:16 10.10061 -64.68951 40 ft 27 kts 322°
2026-05-03 20:16 10.10113 -64.69043 38 ft 12 kts 222°
2026-05-03 20:16 10.09969 -64.69088 38 ft 45 kts 196°
2026-05-03 20:16 10.09646 -64.69162 43 ft 47 kts 192°
2026-05-03 20:17 10.09385 -64.69222 45 ft 22 kts 196°
2026-05-03 20:17 10.09254 -64.69280 45 ft 15 kts 161°
2026-05-03 20:17 10.09248 -64.69255 45 ft 2 kts 43°
2026-05-03 20:17 10.09332 -64.69234 44 ft 31 kts 13°
2026-05-03 20:18 10.09734 -64.69144 42 ft 89 kts 13°
2026-05-03 20:18 10.10522 -64.68965 37 ft 141 kts 13°
2026-05-03 20:18 10.11587 -64.68737 353 ft 161 kts 12°
2026-05-03 20:18 10.12685 -64.68508 1080 ft 159 kts 13°
2026-05-03 20:19 10.13771 -64.68265 1788 ft 163 kts 13°
2026-05-03 20:19 10.14885 -64.67972 2286 ft 170 kts 17°
2026-05-03 20:19 10.16121 -64.67612 2489 ft 194 kts 17°
2026-05-03 20:19 10.17420 -64.67227 3065 ft 197 kts 15°
2026-05-03 20:20 10.18777 -64.67226 3553 ft 202 kts 333°
2026-05-03 20:20 10.19702 -64.68236 4148 ft 202 kts 296°
2026-05-03 20:20 10.20391 -64.69494 4689 ft 208 kts 303°
2026-05-03 20:20 10.21261 -64.70752 4919 ft 231 kts 306°
2026-05-03 20:21 10.22236 -64.72162 5142 ft 255 kts 303°
2026-05-03 20:21 10.23247 -64.73732 5424 ft 275 kts 301°
2026-05-03 20:21 10.24294 -64.75428 5832 ft 288 kts 301°
2026-05-03 20:21 10.25360 -64.77179 6437 ft 294 kts 300°
2026-05-03 20:22 10.26435 -64.78957 7097 ft 297 kts 300°
2026-05-03 20:22 10.27509 -64.80751 7820 ft 298 kts 301°
2026-05-03 20:22 10.28591 -64.82565 8475 ft 301 kts 301°
2026-05-03 20:22 10.29684 -64.84399 9122 ft 305 kts 301°
2026-05-03 20:23 10.30777 -64.86229 9782 ft 308 kts 302°
2026-05-03 20:23 10.31920 -64.88132 10245 ft 319 kts 302°
2026-05-03 20:23 10.33101 -64.90089 10405 ft 339 kts 302°
2026-05-03 20:23 10.34369 -64.92183 10631 ft 355 kts 302°
2026-05-03 20:24 10.35659 -64.94312 11346 ft 353 kts 302°
2026-05-03 20:24 10.36947 -64.96444 11987 ft 355 kts 302°
2026-05-03 20:24 10.38243 -64.98592 12571 ft 359 kts 302°
2026-05-03 20:24 10.39552 -65.00761 13141 ft 362 kts 302°
2026-05-03 20:25 10.40873 -65.02954 13685 ft 366 kts 302°
2026-05-03 20:25 10.42209 -65.05172 14166 ft 370 kts 302°
2026-05-03 20:25 10.43554 -65.07405 14681 ft 372 kts 302°
2026-05-03 20:25 10.44909 -65.09657 15185 ft 374 kts 302°
2026-05-03 20:26 10.46276 -65.11927 15670 ft 378 kts 302°
2026-05-03 20:26 10.47653 -65.14217 16164 ft 381 kts 302°
2026-05-03 20:26 10.49038 -65.16517 16687 ft 383 kts 303°
2026-05-03 20:26 10.50439 -65.18844 17154 ft 387 kts 302°
2026-05-03 20:27 10.51832 -65.21158 17626 ft 390 kts 303°
2026-05-03 20:27 10.53252 -65.23517 18121 ft 393 kts 303°
2026-05-03 20:27 10.54682 -65.25893 18569 ft 395 kts 303°
2026-05-03 20:27 10.56117 -65.28275 19046 ft 395 kts 302°
2026-05-03 20:28 10.57556 -65.30662 19512 ft 396 kts 302°
2026-05-03 20:28 10.58997 -65.33057 19945 ft 398 kts 302°
2026-05-03 20:28 10.60448 -65.35468 20355 ft 400 kts 302°
2026-05-03 20:28 10.61904 -65.37891 20779 ft 402 kts 302°
2026-05-03 20:29 10.63364 -65.40323 21186 ft 404 kts 302°
2026-05-03 20:29 10.64833 -65.42768 21620 ft 406 kts 302°
2026-05-03 20:29 10.66305 -65.45216 22054 ft 408 kts 302°
2026-05-03 20:29 10.67806 -65.47713 22099 ft 419 kts 302°
2026-05-03 20:30 10.69345 -65.50276 22163 ft 430 kts 302°
2026-05-03 20:30 10.70915 -65.52893 22393 ft 435 kts 302°
2026-05-03 20:30 10.72494 -65.55526 22812 ft 435 kts 302°
2026-05-03 20:30 10.74069 -65.58148 23348 ft 433 kts 302°
2026-05-03 20:31 10.75635 -65.60754 23757 ft 432 kts 301°
2026-05-03 20:31 10.77203 -65.63366 24072 ft 434 kts 301°
2026-05-03 20:31 10.78778 -65.65991 24396 ft 434 kts 301°
2026-05-03 20:31 10.80331 -65.68580 24742 ft 434 kts 301°
2026-05-03 20:32 10.81909 -65.71209 25061 ft 435 kts 301°
2026-05-03 20:32 10.83489 -65.73842 25366 ft 436 kts 301°
2026-05-03 20:32 10.85070 -65.76476 25665 ft 437 kts 301°
2026-05-03 20:32 10.86656 -65.79122 25947 ft 438 kts 301°
2026-05-03 20:33 10.88245 -65.81778 26216 ft 439 kts 300°
2026-05-03 20:33 10.88761 -65.82643 26299 ft 440 kts 300°
2026-05-03 20:34 10.94890 -65.92884 27309 ft 445 kts 300°
2026-05-03 20:34 10.96506 -65.95584 27552 ft 447 kts 300°
2026-05-03 20:34 10.98124 -65.98287 27801 ft 448 kts 300°
2026-05-03 20:34 10.99746 -66.00998 28048 ft 449 kts 300°
2026-05-03 20:35 11.01373 -66.03717 28295 ft 450 kts 300°
2026-05-03 20:35 11.03001 -66.06435 28627 ft 449 kts 300°
2026-05-03 20:35 11.04074 -66.08227 28905 ft 447 kts 300°
2026-05-03 20:35 11.05685 -66.10916 29343 ft 443 kts 300°
2026-05-03 20:36 11.07285 -66.13589 29762 ft 441 kts 300°
2026-05-03 20:36 11.08875 -66.16249 30111 ft 439 kts 300°
2026-05-03 20:36 11.10456 -66.18900 30380 ft 438 kts 300°
2026-05-03 20:36 11.12555 -66.22422 30714 ft 438 kts 300°
2026-05-03 20:37 11.13623 -66.24215 30901 ft 437 kts 300°
2026-05-03 20:37 11.15200 -66.26861 31173 ft 436 kts 300°
2026-05-03 20:37 11.16755 -66.29465 31434 ft 436 kts 300°
2026-05-03 20:37 11.18329 -66.32102 31680 ft 436 kts 300°
2026-05-03 20:38 11.19909 -66.34750 31811 ft 437 kts 300°
2026-05-03 20:38 11.23067 -66.40039 31899 ft 436 kts 300°
2026-05-03 20:39 11.26218 -66.45320 31919 ft 439 kts 300°
2026-05-03 20:39 11.29430 -66.50707 31943 ft 449 kts 300°
2026-05-03 20:40 11.32685 -66.56176 31933 ft 452 kts 300°
2026-05-03 20:40 11.35937 -66.61640 31931 ft 450 kts 300°
2026-05-03 20:41 11.39175 -66.67080 31925 ft 448 kts 300°
2026-05-03 20:41 11.42401 -66.72501 31925 ft 447 kts 300°
2026-05-03 20:42 11.45611 -66.77898 31926 ft 448 kts 300°
2026-05-03 20:42 11.48848 -66.83341 31933 ft 449 kts 300°
2026-05-03 20:43 11.52088 -66.88793 31939 ft 450 kts 300°
2026-05-03 20:43 11.55326 -66.94254 31932 ft 450 kts 300°
2026-05-03 20:44 11.58557 -66.99701 31931 ft 448 kts 300°
2026-05-03 20:44 11.61778 -67.05134 31928 ft 447 kts 300°
2026-05-03 20:45 11.65000 -67.10565 31936 ft 448 kts 300°
2026-05-03 20:45 11.68210 -67.15979 31936 ft 448 kts 300°
2026-05-03 20:46 11.71439 -67.21426 31925 ft 448 kts 300°
2026-05-03 20:46 11.74668 -67.26881 31924 ft 449 kts 300°
2026-05-03 20:47 11.77895 -67.32344 31936 ft 449 kts 300°
2026-05-03 20:47 11.81121 -67.37803 31931 ft 449 kts 300°
2026-05-03 20:48 11.84241 -67.43081 31927 ft 449 kts 300°
2026-05-03 20:48 11.86746 -67.47319 31931 ft 449 kts 300°
2026-05-03 20:49 11.89974 -67.52781 31933 ft 448 kts 300°
2026-05-03 20:49 11.93193 -67.58231 31937 ft 448 kts 300°
2026-05-03 20:50 11.96388 -67.63691 31931 ft 447 kts 300°
2026-05-03 20:50 11.99556 -67.69103 31931 ft 446 kts 300°
2026-05-03 20:51 12.02770 -67.74535 31929 ft 447 kts 300°
2026-05-03 20:51 12.05884 -67.80028 31933 ft 445 kts 290°
2026-05-03 20:51 12.06632 -67.83098 31681 ft 450 kts 274°
2026-05-03 20:52 12.06419 -67.86304 31218 ft 457 kts 257°
2026-05-03 20:52 12.05414 -67.89384 30697 ft 458 kts 249°
2026-05-03 20:52 12.04154 -67.92370 30107 ft 458 kts 247°
2026-05-03 20:52 12.02834 -67.95331 29345 ft 458 kts 246°
2026-05-03 20:53 12.01505 -67.98292 28625 ft 459 kts 247°
2026-05-03 20:53 12.00185 -68.01275 27935 ft 462 kts 247°
2026-05-03 20:53 11.98905 -68.04248 27293 ft 465 kts 248°
2026-05-03 20:53 11.97626 -68.07285 26615 ft 464 kts 248°
2026-05-03 20:54 11.96375 -68.10300 25919 ft 458 kts 248°
2026-05-03 20:54 11.93932 -68.16222 24560 ft 447 kts 248°
2026-05-03 20:54 11.92921 -68.19197 23902 ft 441 kts 261°
2026-05-03 20:55 11.92765 -68.22290 23218 ft 436 kts 276°
2026-05-03 20:55 11.93164 -68.25349 22466 ft 433 kts 279°
2026-05-03 20:55 11.93658 -68.28374 21720 ft 431 kts 279°
2026-05-03 20:55 11.94161 -68.31380 20976 ft 430 kts 279°
2026-05-03 20:56 11.94684 -68.34397 20177 ft 431 kts 280°
2026-05-03 20:56 11.95215 -68.37421 19373 ft 433 kts 280°
2026-05-03 20:56 11.95737 -68.40430 18590 ft 436 kts 279°
2026-05-03 20:56 11.96255 -68.43484 17760 ft 438 kts 279°
2026-05-03 20:57 11.96766 -68.46555 16885 ft 439 kts 279°
2026-05-03 20:57 11.97271 -68.49628 16037 ft 439 kts 279°
2026-05-03 20:57 11.97775 -68.52705 15204 ft 439 kts 279°
2026-05-03 20:57 11.98333 -68.55772 14403 ft 439 kts 281°
2026-05-03 20:58 11.98966 -68.58824 13598 ft 438 kts 282°
2026-05-03 20:58 11.99628 -68.61855 12709 ft 433 kts 282°
2026-05-03 20:58 12.00271 -68.64764 11828 ft 408 kts 282°
2026-05-03 20:58 12.00869 -68.67486 11234 ft 391 kts 282°
2026-05-03 20:59 12.01455 -68.70185 10709 ft 388 kts 282°
2026-05-03 20:59 12.02030 -68.72863 10186 ft 385 kts 282°
2026-05-03 20:59 12.02592 -68.75512 9845 ft 376 kts 282°
2026-05-03 20:59 12.03138 -68.78097 9491 ft 368 kts 282°
2026-05-03 21:00 12.03669 -68.80619 9099 ft 354 kts 282°
2026-05-03 21:00 12.04010 -68.82238 8831 ft 337 kts 282°
2026-05-03 21:00 12.04636 -68.85213 8323 ft 314 kts 282°
2026-05-03 21:00 12.05095 -68.87386 7968 ft 312 kts 282°
2026-05-03 21:01 12.05552 -68.89549 7625 ft 311 kts 282°
2026-05-03 21:01 12.06009 -68.91706 7271 ft 310 kts 282°
2026-05-03 21:01 12.06460 -68.93848 6899 ft 303 kts 282°
2026-05-03 21:01 12.06895 -68.95898 6544 ft 289 kts 282°
2026-05-03 21:02 12.07318 -68.97903 6209 ft 289 kts 282°
2026-05-03 21:02 12.07765 -68.99915 5873 ft 290 kts 284°
2026-05-03 21:02 12.08321 -69.01898 5539 ft 290 kts 287°
2026-05-03 21:02 12.08921 -69.03840 5224 ft 283 kts 287°
2026-05-03 21:03 12.09524 -69.05743 4894 ft 279 kts 287°
2026-05-03 21:03 12.10120 -69.07613 4559 ft 275 kts 287°
2026-05-03 21:03 12.10702 -69.09454 4217 ft 271 kts 287°
2026-05-03 21:03 12.11268 -69.11259 3936 ft 268 kts 287°
2026-05-03 21:04 12.11829 -69.13065 3680 ft 266 kts 288°
2026-05-03 21:04 12.12447 -69.14838 3390 ft 262 kts 301°
2026-05-03 21:04 12.13637 -69.16174 3135 ft 250 kts 334°
2026-05-03 21:04 12.15231 -69.16642 2955 ft 232 kts
2026-05-03 21:05 12.16802 -69.16469 2802 ft 224 kts 14°
2026-05-03 21:05 12.18319 -69.16201 2624 ft 219 kts 16°
2026-05-03 21:05 12.19788 -69.15898 2514 ft 212 kts 18°
2026-05-03 21:05 12.21159 -69.15491 2480 ft 196 kts 37°
2026-05-03 21:06 12.21958 -69.14519 2482 ft 180 kts 80°
2026-05-03 21:06 12.22033 -69.13249 2522 ft 181 kts 91°
2026-05-03 21:06 12.21988 -69.11958 2518 ft 181 kts 94°
2026-05-03 21:06 12.21862 -69.10731 2517 ft 165 kts 97°
2026-05-03 21:07 12.21713 -69.09623 2480 ft 152 kts 97°
2026-05-03 21:07 12.21543 -69.08537 2287 ft 155 kts 100°
2026-05-03 21:07 12.21331 -69.07527 2208 ft 137 kts 101°
2026-05-03 21:07 12.21195 -69.06905 2025 ft 134 kts 100°
2026-05-03 21:08 12.20943 -69.05684 1710 ft 129 kts 100°
2026-05-03 21:08 12.20822 -69.05093 1583 ft 128 kts 101°
2026-05-03 21:08 12.20571 -69.03918 1545 ft 122 kts 102°
2026-05-03 21:08 12.20382 -69.03082 1443 ft 120 kts 101°
2026-05-03 21:09 12.20199 -69.02242 1264 ft 126 kts 101°
2026-05-03 21:09 12.20029 -69.01391 1055 ft 120 kts 101°
2026-05-03 21:09 12.19827 -69.00496 824 ft 131 kts 101°
2026-05-03 21:09 12.19630 -68.99608 635 ft 128 kts 101°
2026-05-03 21:10 12.19447 -68.98686 411 ft 136 kts 101°
2026-05-03 21:10 12.19264 -68.97773 211 ft 128 kts 102°
2026-05-03 21:10 12.19085 -68.96890 65 ft 126 kts 102°
2026-05-03 21:10 12.18919 -68.96112 47 ft 88 kts 101°
2026-05-03 21:11 12.18848 -68.95781 41 ft 29 kts 102°
2026-05-03 21:11 12.18805 -68.95573 38 ft 31 kts 102°
2026-05-03 21:11 12.18731 -68.95403 41 ft 20 kts 172°
2026-05-03 21:11 12.18616 -68.95433 39 ft 10 kts 230°
2026-05-03 21:12 12.18607 -68.95504 40 ft 10 kts 276°
2026-05-03 21:12 12.18593 -68.95561 41 ft 5 kts 203°
2026-05-03 21:12 12.18533 -68.95574 44 ft 15 kts 191°
2026-05-03 21:12 12.18528 -68.95575 44 ft 0 kts 192°